www.pogodaiklimat.ru

Погода и климат >> Архив погоды >> Россия >> Якутия >> Вилюйск


АРХИВ ПОГОДЫ в Вилюйске

Время (UTC), дата Ветер
(напр.,м/с)
 
Видим.   Явления Облачность Т
(С)
Тd
(С)
f
(%)
Тe
(С)
Тes
(С)
Комфортность P
(гПа)
Po
(гПа)
Тmin
(С)
Tmax
(С)
R
(мм)
R24
(мм)
S
(см)
09 15.09 З 2 50 км {ливн. осадки} 8/8 600 м
[Cb calv]
+1.4 0.0 90 -2 -2 1003.0 989.3
12 15.09 ЮВ 1 50 км {ливн. осадки} 4/0
[Ac trans]
-0.4 -1.3 94 -3 -3 1004.6 990.8 +1.6 7
15 15.09 ЮВ 1 50 км 3/0
[Ac trans]
-1.7 -2.5 94 -4 -4 1005.1 991.2
18 15.09 В 1 50 км 8/0
[Ci fib]
-2.8 -4.1 91 -5 -5 1006.1 992.1
21 15.09 В 1 50 км 9/3 600 м
[Sc Ac trans]
-4.0 -5.2 91 -6 -6 1006.6 992.6
00 16.09 Ю 2 50 км 9/9 600 м
[Sc]
-0.2 -1.6 90 -4 -4 1007.1 993.2 -8.8 7
03 16.09 Ю 1 50 км 10/10 300 м
[Cb calv]
+2.1 -0.4 84 0 0 1008.4 994.6
06 16.09 В 2 50 км 8/4 600 м
[Sc Ac trans]
+3.2 -0.6 76 0 +2 1009.6 995.8
09 16.09 В 1 50 км 8/0
[Ci fib]
+3.1 -1.7 71 +2 +2 1010.6 996.8
12 16.09 СВ 1 50 км 3/0
[Ci fib]
+0.8 -0.6 90 -1 -1 1012.0 998.1 +3.5
15 16.09 СВ 1 50 км ясно -0.8 -1.7 94 -3 -3 1012.6 998.6
18 16.09 С 1 50 км 10/5 600 м
[Sc Ac trans]
0.0 -1.4 90 -2 -2 1013.3 999.4
21 16.09 СЗ 1 50 км 8/0
[Ac trans Ci fib]
-0.6 -1.8 92 -3 -3 1014.0 1000.0
00 17.09 З 1 50 км 10/4 600 м
[Sc As trans]
-0.5 -2.0 90 -3 -2 1014.6 1000.7 -1.7 1
03 17.09 СЗ 3 50 км 9/3 600 м
[Cu hum Ac As]
+1.6 -1.2 82 -3 -2 1015.0 1001.1
06 17.09 СЗ 4 50 км 9/4 600 м
[Sc Ac trans Ci fib]
+5.9 -2.4 55 +3 +3 1014.8 1001.2
09 17.09 СЗ 3 50 км 9/3 600 м
[Sc Ac trans]
+5.2 -4.9 48 +2 +3 1015.5 1001.8
12 17.09 З 3 50 км 8/3 600 м
[Sc Ac trans]
+4.0 -3.9 56 +1 +1 1016.1 1002.4 +6.2
15 17.09 З 3 50 км 8/0
[Ac trans]
+2.8 -4.1 60 -1 -1 1015.6 1001.7
18 17.09 З 2 50 км 4/0
[Ci fib]
+1.2 -4.4 66 -2 -2 1015.4 1001.5
21 17.09 З 2 50 км 3/0
[Ci fib]
-1.1 -3.6 83 -5 -5 1015.5 1001.5
00 18.09 З 3 50 км 8/3 600 м
[Sc Ac trans]
+0.8 -3.1 75 -4 -3 1015.6 1001.7 -2.2 0
03 18.09 З 3 50 км 8/0
[Ac trans]
+6.8 -3.6 47 +4 +6 1014.7 1001.1
06 18.09 З 4 50 км 8/3 600 м
[Cu hum Ac trans Ci fib]
+8.2 -4.9 39 +6 +7 1014.2 1000.7
09 18.09 З 2 50 км 6/0
[Ac trans Ci fib]
+7.7 -4.9 40 +6 +7 1013.7 1000.2
12 18.09 В 1 50 км ясно +1.8 -2.9 71 0 0 1014.8 1000.9 +9.2
15 18.09 В 1 50 км ясно -1.8 -4.0 85 -4 -4 1014.3 1000.3
18 18.09 В 2 50 км ясно -2.1 -3.6 89 -6 -6 1013.2 999.2
21 18.09 СВ 2 50 км 4/0
[Ci fib]
-2.4 -3.3 94 -7 -7 1012.5 998.5
00 19.09 СВ 2 50 км 4/0
[Ac trans Ci fib]
+1.0 -0.7 88 -3 -2 1011.9 998.0 -3.0
03 19.09 В 3 50 км 4/0
[Ac trans Ci fib]
+6.3 -1.1 59 +4 +6 1011.1 997.5
06 19.09 С 2 50 км 8/8 600 м
[Sc]
+8.2 -0.8 53 +7 +7 1011.1 997.6
09 19.09 СВ 2 50 км 9/6 600 м
[Sc Ac trans]
+7.1 -0.7 58 +5 +5 1012.9 999.3
12 19.09 С 1 50 км 8/5 600 м
[Sc Ac trans]
+4.2 -0.6 71 +3 +3 1015.3 1001.6 +8.8
15 19.09 СЗ 1 50 км 8/0
[Ac trans]
+2.1 -0.7 82 +1 +1 1016.1 1002.2
18 19.09 З 1 50 км 9/9 600 м
[Sc]
+1.4 -0.8 85 -0 -0 1016.6 1002.7
21 19.09 З 2 50 км 10/4 600 м
[Sc Ac trans]
+1.2 -1.1 85 -2 -2 1017.0 1003.0
00 20.09 ЮЗ 1 50 км 9/4 600 м
[Sc Ac trans]
+1.1 -2.1 79 -1 -0 1017.4 1003.4 +0.2
03 20.09 З 1 50 км 8/6 600 м
[Cu hum Ac trans Ci fib]
+4.7 -3.3 56 +4 +5 1017.0 1003.2
06 20.09 ЮЗ 2 50 км 8/6 600 м
[Cu hum Ci fib]
+7.1 -3.1 48 +6 +7 1015.2 1001.6
09 20.09 ЮЗ 2 50 км 3/0
[Ci fib]
+7.2 -4.1 44 +6 +6 1014.0 1000.4
12 20.09 Ю 1 50 км 3/0
[Ci fib]
+2.4 -3.9 63 +1 +1 1013.7 999.8 +8.4
15 20.09 ЮВ 2 50 км ясно +0.4 -5.8 63 -3 -3 1013.1 999.2
18 20.09 В 1 50 км 3/0
[Ci fib]
-1.8 -5.1 78 -4 -4 1012.5 998.5
21 20.09 В 1 50 км ясно -3.3 -5.0 88 -6 -6 1012.4 998.3
00 21.09 В 2 50 км 9/8 600 м
[Sc Ac trans]
-0.7 -3.8 80 -4 -4 1011.8 997.8 -4.4
03 21.09 ЮВ 2 50 км 10/8 600 м
[Sc Ac As]
+4.5 -3.2 57 +2 +3 1011.4 997.7
06 21.09 ЮВ 3 50 км 9/8 600 м
[Sc Ac trans]
+7.7 +0.1 59 +5 +6 1009.4 995.9
09 21.09 ЮВ 3 20 км слаб. ливневой дождь 10/8 600 м
[Cb calv As op]
+6.3 +2.7 78 +3 +3 1008.1 994.5
12 21.09 ЮВ 3 20 км слаб. ливневой дождь 10/8
[Cb cap As trans]
+7.3 +4.6 83 +4 +4 1006.4 992.9 +7.9 0.9
15 21.09 СВ 4 10 км ливневой дождь 10/10 600 м
[Cb calv]
+6.3 +5.6 95 +2 +2 1003.4 989.9
18 21.09 В 2 50 км {ливн. осадки} 10/8 600 м
[Cb calv As trans]
+6.7 +5.8 94 +4 +4 1002.8 989.3
21 21.09 З 1 50 км 10/0
[Ac As]
+7.3 +6.2 93 +6 +6 1002.8 989.4
00 22.09 З 3 50 км 9/9 600 м
[Cb calv]
+7.8 +7.4 97 +5 +5 1004.6 991.2 +5.8 11
03 22.09 З 4 50 км 4/3 600 м
[Cu med, cong Ci fib]
+9.0 +4.5 73 +6 +8 1005.9 992.5

 

Местоположение метеостанции Вилюйск (Якутия, Россия): широта 63.77 долгота 121.60 высота над уровнем моря 123 м.

В архиве по умолчанию представлена погода в Вилюйске за последнюю неделю. Архивные данные за месяц целиком и за предыдущие месяцы, начиная с января 2011 года, Вы можете получить, выбрав интересующий диапазон дат из раскрывающегося списка и нажав кнопку "Ввод!".


*Определитесь, кто Вы:
робот инопланетянин человек

Внимание! Время в таблицах - всемирное. Для получения местного времени необходимо прибавить поправку, которая равна 9 ч.

Смотрите также архив погоды в соседних городах и на ближайших метеорологических станциях:

Погода в Верхневилюйске (Якутия, Россия) (78 км)
Погода в Хатырык-Хомо (Якутия, Россия) (158 км)
Погода в Нюрбе (Якутия, Россия) (172 км)
Погода в Бестяхской Звероферме (Якутия, Россия) (208 км)
Погода в Чумпуруке (Якутия, Россия) (235 км)
Погода в Сого-Хае (Якутия, Россия) (241 км)
Погода в Тонгулахе (Якутия, Россия) (253 км)
Погода в Сунтаре (Якутия, Россия) (269 км)
Погода в Сангаре (Якутия, Россия) (285 км)
Погода в Бердигестяхе (Якутия, Россия) (319 км)

Пояснения к столбцам:

Ветер - указаны скорость ветра в м/с - средняя за 10 мин, порывы в срок и между сроками (в фигурных скобках) и направление, откуда дует ветер: С - северный, СВ - северо-восточный, В - восточный, ЮВ - юго-восточный, Ю - южный, ЮЗ - юго-западный, З - западный, СЗ - северо-западный.
Видимость - горизонтальная дальность видимости в метрах или километрах. При видимости от 1 до 10 км при отсутствии осадков обычно наблюдается дымка, при ухудшении видимости до 1 км и менее - туман. В сухую погоду видимость может ухудшаться дымом, пылью или мглою.
Явления - указаны атмосферные явления, наблюдавшиеся в срок или в последний час перед сроком; фигурными скобками обозначены явления, наблюдавшиеся между сроками (за 1-3 часа до срока); квадратными скобками обозначены град или гололедные отложения с указанием их диаметра в мм.
Облачность - указаны через наклонную черту общая и нижняя облачность в баллах и высота нижней границы облаков в метрах; квадратными скобками обозначены формы облаков: Ci - перистые, Cs - перисто-слоистые, Cc - перисто-кучевые, Ac - высококучевые, As - высокослоистые, Sc - слоисто-кучевые, Ns - слоисто-дождевые, Cu - кучевые, Cb - кучево-дождевые. Подробнее классификацию облаков см. в Атласе облаков (PDF).
T - Температура воздуха - температура, измеренная на высоте 2 м над землей.
Td - Температура точки росы - температура, при понижении до которой содержащийся в воздухе водяной пар достигнет насыщения.
f - Относительная влажность воздуха - влажноcть воздуха, измеренная на высоте 2 м над землей.
Te - Эффективная температура - температура, которую ощущает одетый по сезону человек в тени. Характеристика душности погоды. При расчете учитывается влияние влажности воздуха и скорости ветра на теплоощущения человека.
Tes - Эффективная температура на солнце - температура, которую ощущает человек, с поправкой на солнечный нагрев. Характеристика знойности погоды. Зависит от высоты солнца над горизонтом, облачности и скорости ветра. Ночью, в пасмурную погоду, а также при ветре 12 м/с и более поправка равна нулю.
P - Атмосферное давление - приведенное к уровню моря атмосферное давление.
Po - Атмосферное давление - измеренное на уровне метеостанции атмосферное давление.
Tmin - Минимальная температура - минимум температуры воздуха на высоте 2 м над землей.
Tmax - Максимальная температура - максимум температуры воздуха на высоте 2 м над землей.
R - Количество осадков - Количество выпавших осадков за период времени, мм. При наведении курсора мыши на число - период времени, за который выпало указанное количество осадков.
R24 - Количество осадков - Количество выпавших осадков за 24 часа, мм.
S - Снежный покров - Высота снежного покрова, см. При наведении курсора мыши на число - состояние снежного покрова и степень покрытия местности в баллах.